ボアッティーニ彗星

P/2011 Y2 ( Boattini )

English version
Home page
Updated on February 10, 2013

---------------------------------------------------------------------

・ プロフィール

発見日 2011年12月24日
発見光度 19.4等
発見者 A. Boattini (Mount Lemmon)

・ 写真集

・ 軌道要素

Epoch 2012 Mar. 14.0 TT = JDT 2456000.5
T 2012 Mar. 21.69081 TT                                 MPC
q   1.7871809            (2000.0)            P               Q
n   0.06350694     Peri.  131.19270     +0.14941549     -0.98513686
a   6.2218841      Node   310.00918     +0.87084680     +0.17169925
e   0.7127589      Incl.    6.35171     +0.46829570     -0.00497343
P  15.5
From 91 observations 2011 Sept. 4-2012 Apr. 11, mean residual 0".5.

・ 光度変化

        m1 = 15.0 + 5 logΔ + 10.0 log r

---------------------------------------------------------------------

軌道要素はM.P.E.C. 2012-G45に掲載されたものです。
光度グラフはComet for Windowsで作成したものです。

---------------------------------------------------------------------

Copyright(C) Seiichi Yoshida (comet@aerith.net). All rights reserved.